Hourly Data Report for October 29, 2014

All times are specified in Local Standard Time (LST). Add 1 hour to adjust for Daylight Saving Time where and when it is observed.

CLYDE RIVER A
NUNAVUT

70°29'09.000" N
68°31'01.000" W
26.50 m
2400804
71090
YCY

Download Data

Hourly Data (October 2014)
Hourly Data Report for October 29, 2014
Temp Definition
°C
Dew Point Temp Definition
°C
Rel Hum Definition
%
Wind Dir Definition
10's deg

Wind Spd Definition
km/h
Visibility Definition
km
Stn Press Definition
kPa
Hmdx Definition


Wind Chill Definition


Weather Definition


TIME
00:00 Legend Double Dagger -3.6 -4.9 91 17 18 12.9 100.46   -9 Snow
01:00 Legend Double Dagger -3.5 -4.7 91 16 15 16.1 100.43   -9 Snow
02:00 Legend Double Dagger -4.0 -4.8 94 14 15 16.1 100.40   -9 Snow
03:00 Legend Double Dagger -3.9 -5.3 90 15 17 16.1 100.37   -10 LegendNANA
04:00 Legend Double Dagger -4.0 -5.4 90 16 18 16.1 100.34   -10 Snow
05:00 Legend Double Dagger -4.6 -5.7 92 12 11 16.1 100.30   -9 Snow
06:00 Legend Double Dagger -4.4 -5.9 89 14 21 16.1 100.25   -11 LegendNANA
07:00 Legend Double Dagger -5.3 -6.2 94 12 17 16.1 100.23   -11 LegendNANA
08:00 Legend Double Dagger -5.8 -7.5 88 LegendMM 4 16.1 100.20   -8 LegendNANA
09:00 Legend Double Dagger -4.9 -6.5 89 LegendMM 4 16.1 100.17   -7 LegendNANA
10:00 Legend Double Dagger -6.9 -7.6 95 2 11 16.1 100.15   -12 LegendNANA
11:00 Legend Double Dagger -6.8 -7.7 93 1 4 16.1 100.12   -9 LegendNANA
12:00 Legend Double Dagger -9.0 -10.2 91 LegendMM 4 16.1 100.12   -11 LegendNANA
13:00 Legend Double Dagger -7.6 -9.4 87 29 21 16.1 100.14   -15 LegendNANA
14:00 Legend Double Dagger -6.7 -9.1 83 30 11 16.1 100.17   -12 LegendNANA
15:00 Legend Double Dagger -6.7 -9.2 82 30 11 16.1 100.21   -12 LegendNANA
16:00 Legend Double Dagger -6.8 -9.3 83 27 5 16.1 100.25   -9 LegendNANA
17:00 Legend Double Dagger -6.5 -8.8 84 30 5 16.1 100.25   -9 LegendNANA
18:00 Legend Double Dagger -6.3 -8.6 84 26 5 16.1 100.28   -9 LegendNANA
19:00 Legend Double Dagger -8.6 -10.5 86 27 5 16.1 100.31   -11 LegendNANA
20:00 Legend Double Dagger -9.6 -11.6 85 29 15 16.1 100.33   -16 LegendNANA
21:00 Legend Double Dagger -8.7 -11.3 82 29 11 16.1 100.37   -14 LegendNANA
22:00 Legend Double Dagger -8.2 -10.6 83 27 8 16.1 100.38   -12 LegendNANA
23:00 Legend Double Dagger -9.1 -10.7 88 27 9 16.1 100.41   -14 LegendNANA

Notes on Data Quality.

Legend

  • E = Estimated
  • M = Missing
  • NA = Not Available
  • ‡ = Partner data that is not subject to review by the National Climate Archives
Date modified: